www.pogodaiklimat.ru

Погода и климат >> Архив погоды >> Бразилия >> Santa Tereza


ПОГОДА в Santa Tereza

  • Прогноз погоды в Santa Tereza
  • Монитор погоды в Santa Tereza
  • Климат города

АРХИВ ПОГОДЫ в Santa Tereza

Время (UTC), дата Ветер
(напр.,м/с)
 
Видим.   Явления Облачность Т
(С)
Тd
(С)
f
(%)
Тe
(С)
Тes
(С)
Комфортность P
(гПа)
Po
(гПа)
Тmin
(С)
Tmax
(С)
R
(мм)
R24
(мм)
S
(см)
22 13.09 штиль 0
{2}
н/о н/о +13.4 +13.3 99 +13 +13 1020.5 908.4
23 13.09 штиль 0
{2}
н/о н/о +13.4 +13.2 99 +13 +13 1020.8 908.6
00 14.09 штиль 0
{2}
н/о н/о +13.2 +13.0 99 +13 +13 1021.5 909.2
01 14.09 штиль 0
{1}
н/о н/о +13.1 +12.9 99 +13 +13 1021.7 909.3
02 14.09 штиль 0
{1}
н/о н/о +13.1 +12.9 99 +13 +13 1021.6 909.2
03 14.09 штиль 0
{1}
н/о н/о +13.0 +12.8 99 +12 +12 1021.4 909.0
04 14.09 штиль 0
{1}
н/о н/о +12.8 +12.7 99 +12 +12 1020.9 908.5
05 14.09 штиль 0
{1}
н/о н/о +12.6 +12.4 99 +12 +12 1020.2 907.8
06 14.09 СВ 1
{2}
н/о н/о +13.0 +12.8 99 +14 +14 1020.0 907.8
07 14.09 штиль 0
{2}
н/о н/о +12.9 +12.8 99 +12 +12 1019.6 907.4
08 14.09 ЮВ 1
{2}
н/о н/о +13.0 +12.8 99 +14 +14 1019.3 907.1
09 14.09 СВ 1
{2}
н/о н/о +13.0 +12.9 99 +14 +14 1019.1 907.0
10 14.09 СВ 1
{3}
н/о н/о +13.6 +13.4 99 +14 +14 1019.1 907.2
11 14.09 С 1
{3}
н/о н/о +13.6 +13.5 99 +14 +14 1020.4 908.3
12 14.09 С 1
{3}
н/о н/о +15.2 +15.0 99 +16 +16 1019.9 908.5
13 14.09 С 1
{3}
н/о н/о +16.8 +14.8 88 +18 +18 1018.8 908.1
14 14.09 С 1
{4}
н/о н/о +16.3 +14.2 87 +17 +17 1018.5 907.6
15 14.09 С 1
{4}
н/о н/о +18.5 +14.2 76 +21 +21 комфорт 1016.1 906.3
16 14.09 С 1
{3}
н/о н/о +18.4 +14.1 76 +21 +21 комфорт 1015.1 905.4
17 14.09 С 1
{2}
н/о н/о +19.1 +13.9 72 +22 +22 комфорт 1014.1 904.7
18 14.09 С 1
{3}
н/о н/о +18.0 +13.8 76 +19 +19 1014.1 904.3
19 14.09 штиль 0
{3}
н/о н/о +17.8 +14.6 82 +18 +18 1013.5 903.7
20 14.09 штиль 0
{2}
н/о н/о +17.2 +14.6 85 +17 +17 1013.4 903.4
21 14.09 штиль 0
{2}
н/о н/о +15.6 +14.5 93 +15 +15 1015.4 904.6
22 14.09 штиль 0
{1}
н/о н/о +14.9 +14.3 96 +15 +15 1016.0 904.9
23 14.09 штиль 0
{3}
н/о н/о +14.6 +13.9 96 +14 +14 1016.2 905.0
00 15.09 штиль 0
{3}
н/о н/о +14.2 +13.5 96 +14 +14 1017.1 905.6
01 15.09 Ю 1
{4}
н/о н/о +14.1 +13.5 96 +15 +15 1017.0 905.5
02 15.09 штиль 0
{3}
н/о н/о +14.1 +13.7 97 +14 +14 1017.1 905.6
03 15.09 штиль 0
{3}
н/о н/о +14.2 +13.8 97 +14 +14 1016.4 905.0
04 15.09 штиль 0
{2}
н/о н/о +14.2 +13.8 97 +14 +14 1015.6 904.3
05 15.09 С 1
{3}
н/о н/о +14.2 +13.8 97 +15 +15 1016.2 904.8
06 15.09 С 1
{2}
н/о н/о +14.1 +13.8 98 +15 +15 1016.0 904.6
07 15.09 С 1
{3}
н/о н/о +14.1 +13.8 98 +14 +14 1016.0 904.6
08 15.09
{3}
н/о н/о +14.0 +13.7 98 1016.3 904.8
09 15.09
{4}
н/о н/о +14.0 +13.7 98 1015.7 904.3
10 15.09 С 2
{4}
н/о н/о +13.9 +13.6 98 +14 +14 1016.7 905.2
11 15.09 С 2
{5}
н/о н/о +13.9 +13.6 98 +14 +14 1017.2 905.6
12 15.09 С 2
{5}
н/о н/о +14.3 +14.0 98 +14 +14 1017.5 906.0
13 15.09 С 2
{5}
н/о н/о +14.3 +13.9 97 +14 +14 1017.0 905.6 0.4
14 15.09 С 2
{5}
н/о н/о +16.5 +15.1 91 +17 +17 1015.7 905.2
15 15.09 С 2
{4}
н/о н/о +17.7 +14.8 83 +18 +18 1014.4 904.5 0.2
16 15.09 СЗ 2
{5}
н/о н/о +18.8 +14.3 75 +21 +21 комфорт 1013.9 904.4
17 15.09 СЗ 2
{5}
н/о н/о +19.1 +14.6 75 +21 +21 комфорт 1012.9 903.6
18 15.09 С 2
{5}
н/о н/о +18.9 +14.2 74 +21 +21 комфорт 1012.5 903.2
19 15.09 СЗ 1
{5}
н/о н/о +19.0 +14.7 76 +21 +21 комфорт 1012.6 903.3
21 15.09 С 1
{3}
н/о н/о +17.6 +14.1 80 +19 +19 1013.8 903.9
22 15.09 С 2
{3}
н/о н/о +17.3 +14.0 81 +18 +18 1014.1 904.1
23 15.09 С 2
{4}
н/о н/о +17.3 +13.9 80 +18 +18 1014.6 904.5
00 16.09 С 2
{5}
н/о н/о +17.3 +13.9 80 +18 +18 1014.8 904.7
02 16.09 С 2
{5}
н/о н/о +16.9 +14.0 83 +17 +17 1015.1 904.8
01 16.09 С 3
{5}
н/о н/о +17.4 +14.0 80 +18 +18 1014.9 904.8
03 16.09 С 2
{4}
н/о н/о +16.6 +14.2 86 +17 +17 1014.5 904.2
04 16.09 С 1
{4}
н/о н/о +16.2 +14.6 90 +17 +17 1014.0 903.6
05 16.09 С 2
{5}
н/о н/о +16.1 +15.4 96 +16 +16 1013.9 903.5
06 16.09 С 2
{5}
н/о н/о +16.1 +15.5 96 +16 +16 1012.7 902.4
08 16.09 З 1
{5}
н/о н/о +16.2 +15.1 93 +18 +18 1013.8 903.4
07 16.09 СЗ 2
{5}
н/о н/о +16.4 +15.6 95 +16 +16 1012.4 902.2
09 16.09 ЮВ 1
{2}
н/о н/о +16.2 +15.5 96 +18 +18 1015.1 904.6
10 16.09 ЮЗ 1
{1}
н/о н/о +16.9 +15.8 93 +18 +18 1015.5 905.2
11 16.09 С 2
{4}
н/о н/о +16.7 +15.7 94 +17 +17 1015.3 904.9 1
12 16.09 З 1
{3}
н/о н/о +17.5 +16.1 91 +19 +19 1016.1 905.9
14 16.09 З 2
{4}
н/о н/о +20.7 +17.0 79 +25 +25 комфорт 1014.0 905.2 0.2
13 16.09 СЗ 1
{5}
н/о н/о +19.0 +16.5 85 +22 +22 комфорт 1015.4 905.8
15 16.09 З 3
{5}
н/о н/о +23.4 +17.2 68 +29 +29 душно 1012.5 904.8
16 16.09 З 3
{6}
н/о н/о +23.2 +15.6 62 +27 +27 душно 1011.8 904.1
17 16.09 В 1
{5}
н/о н/о +20.9 +18.0 83 +26 +26 душно 1012.4 903.8
18 16.09 В 2
{3}
н/о н/о +18.5 +17.0 91 +20 +20 1013.0 903.5
20 16.09 В 1
{3}
н/о н/о +15.7 +15.2 97 +16 +16 1015.1 904.4
19 16.09 В 1
{3}
н/о н/о +16.3 +15.7 96 +17 +17 1014.3 903.9
21 16.09 ЮВ 1
{3}
н/о н/о +15.8 +15.4 97 +16 +16 1015.6 904.9
22 16.09 ЮВ 1
{3}
н/о н/о +15.5 +15.1 97 +17 +17 1016.7 905.7
23 16.09 В 1
{2}
н/о н/о +15.3 +14.9 97 +16 +16 1017.3 906.2
00 17.09 В 2
{2}
н/о н/о +15.2 +14.9 98 +15 +15 1017.7 906.5
02 17.09 Ю 1
{2}
н/о н/о +15.7 +15.3 97 +17 +17 1017.7 906.7
01 17.09 В 2
{3}
н/о н/о +15.5 +15.2 98 +16 +16 1017.7 906.6
03 17.09 штиль 0
{2}
н/о н/о +15.6 +15.3 98 +15 +15 1017.2 906.2
04 17.09 В 1
{2}
н/о н/о +15.4 +15.1 98 +17 +17 1016.6 905.6
05 17.09 В 1
{2}
н/о н/о +15.3 +15.0 98 +16 +16 1016.1 905.1
06 17.09 СЗ 1
{1}
н/о н/о +14.8 +14.5 98 +16 +16 1016.2 905.0
08 17.09 штиль 0
{1}
н/о н/о +15.2 +14.9 98 +15 +15 1015.8 904.8
07 17.09 штиль 0
{2}
н/о н/о +15.1 +14.8 98 +15 +15 1015.6 904.6
09 17.09 штиль 0
{1}
н/о н/о +15.4 +15.1 98 +15 +15 1016.5 905.5
10 17.09 штиль 0
{1}
н/о н/о +16.1 +15.8 98 +16 +16 1016.9 906.1
11 17.09 В 1
{2}
н/о н/о +16.2 +15.9 98 +18 +18 1017.2 906.4
12 17.09 штиль 0
{2}
н/о н/о +16.0 +15.7 98 +16 +16 1017.9 907.0
14 17.09 штиль 0
{2}
н/о н/о +16.4 +16.1 98 +16 +16 1017.7 907.0
13 17.09 В 1
{2}
н/о н/о +15.9 +15.6 98 +17 +17 1018.4 907.4
15 17.09 штиль 0
{1}
н/о н/о +17.5 +17.1 98 +17 +17 1016.6 906.4
16 17.09 СЗ 1
{2}
н/о н/о +18.2 +17.8 98 +20 +20 1015.9 906.0
17 17.09 С 1
{2}
н/о н/о +17.9 +17.5 98 +20 +20 1015.6 905.6
18 17.09
{3}
н/о н/о +16.7 +16.4 98 1015.9 905.5
20 17.09 СЗ 1
{3}
н/о н/о +17.0 +16.7 98 +18 +18 1015.9 905.6 0.2
19 17.09 З 1
{3}
н/о н/о +16.5 +16.1 97 +18 +18 1016.2 905.7 0.6
21 17.09 СЗ 1
{3}
н/о н/о +17.4 +17.1 98 +18 +18 1015.9 905.7
22 17.09 СЗ 2
{3}
н/о н/о +18.0 +17.6 98 +19 +19 1015.8 905.8
23 17.09 СЗ 2
{3}
н/о н/о +17.5 +16.8 96 +18 +18 1016.4 906.2
00 18.09 С 2
{4}
н/о н/о +17.2 +16.5 96 +17 +17 1017.0 906.6 0.2
02 18.09 С 2
{4}
н/о н/о +17.8 +16.5 92 +19 +19 1016.6 906.5
01 18.09 С 2
{4}
н/о н/о +17.7 +16.6 93 +18 +18 1017.3 907.1 0.2
03 18.09 С 2
{5}
н/о н/о +17.1 +16.1 94 +18 +18 1016.3 906.0
04 18.09 С 2
{4}
н/о н/о +17.0 +16.5 97 +17 +17 1015.5 905.2
05 18.09 СВ 1
{3}
н/о н/о +17.1 +16.7 97 +19 +19 1014.8 904.6
06 18.09 С 1
{4}
н/о н/о +17.5 +17.1 98 +19 +19 1014.3 904.3
08 18.09
{3}
н/о н/о +17.8 +17.4 98 1014.8 904.9 0.4
07 18.09 С 1
{4}
н/о н/о +17.6 +17.3 98 +19 +19 1014.2 904.3
09 18.09 С 1
{4}
н/о н/о +17.8 +17.5 98 +19 +19 1015.2 905.2
10 18.09 С 2
{4}
н/о н/о +17.9 +17.6 98 +19 +19 1016.1 906.1
11 18.09 С 2
{5}
н/о н/о +18.1 +17.7 98 +19 +19 1016.8 906.8 0.2
12 18.09 С 1
{4}
н/о н/о +18.1 +17.8 98 +19 +19 1016.8 906.8
14 18.09 СЗ 2
{5}
н/о н/о +18.5 +18.1 98 +20 +20 1016.3 906.5
13 18.09 С 2
{5}
н/о н/о +18.3 +17.9 98 +20 +20 1016.5 906.6 0.2
15 18.09 С 2
{4}
н/о н/о +19.0 +18.6 98 +21 +21 комфорт 1015.2 905.7
16 18.09 СЗ 2
{5}
н/о н/о +20.4 +20.0 98 +25 +25 комфорт 1014.1 905.2
17 18.09 СЗ 1
{4}
н/о н/о +19.5 +19.1 98 +23 +23 комфорт 1013.5 904.3
20 18.09 СЗ 1
{4}
н/о н/о +19.8 +18.4 92 +24 +24 комфорт 1013.4 904.3
19 18.09 СЗ 1
{5}
н/о н/о +20.1 +19.0 93 +25 +25 комфорт 1012.9 904.0
21 18.09 СЗ 1
{3}
н/о н/о +19.3 +18.5 95 +23 +23 комфорт 1014.1 904.8
22 18.09 С 1
{3}
н/о н/о +19.2 +18.5 96 +22 +22 комфорт 1014.7 905.3
23 18.09 С 1
{3}
н/о н/о +19.1 +18.6 97 +22 +22 комфорт 1015.2 905.7
00 19.09 З 1
{3}
н/о н/о +19.0 +18.5 97 +22 +22 комфорт 1016.5 906.8
02 19.09
{2}
н/о н/о +18.9 +18.5 98 1016.3 906.6 0.4
01 19.09 С 1
{3}
н/о н/о +18.9 +18.5 98 +22 +22 комфорт 1016.4 906.7 0.8
03 19.09 СЗ 1
{3}
н/о н/о +18.7 +18.3 98 +21 +21 комфорт 1016.1 906.4 0.2
04 19.09 С 1
{3}
н/о н/о +18.6 +18.2 98 +21 +21 комфорт 1015.2 905.5 0.4
05 19.09
{3}
н/о н/о +18.5 +18.1 98 1014.7 905.0
06 19.09 С 2
{3}
н/о н/о +18.5 +18.1 98 +20 +20 1014.0 904.4 0.4
08 19.09 С 1
{3}
н/о н/о +18.1 +17.8 98 +19 +19 1014.9 905.1
07 19.09
{3}
н/о н/о +18.4 +18.0 98 1014.0 904.4 0.4
09 19.09 С 2
{4}
н/о н/о +17.8 +17.5 98 +18 +18 1015.7 905.7
10 19.09 С 2
{4}
н/о н/о +17.8 +17.4 98 +19 +19 1016.4 906.3
11 19.09 С 2
{5}
н/о н/о +17.9 +17.6 98 +19 +19 1017.9 907.7
12 19.09 С 2
{5}
н/о н/о +17.5 +17.1 98 +18 +18 1018.3 907.9
14 19.09 СЗ 2
{4}
н/о н/о +18.4 +18.1 98 +20 +20 1017.7 907.7
13 19.09 СЗ 1
{5}
н/о н/о +18.3 +18.0 98 +20 +20 1017.8 907.7
15 19.09 З 3
{5}
н/о н/о +19.1 +18.7 98 +21 +21 комфорт 1016.8 907.1
16 19.09 З 2
{6}
н/о н/о +21.4 +20.9 97 +27 +27 душно 1015.1 906.4
17 19.09 З 3
{5}
н/о н/о +22.7 +18.6 78 +28 +28 душно 1014.2 906.1
18 19.09 З 3
{5}
н/о н/о +22.0 +18.6 81 +27 +27 душно 1014.3 905.9
20 19.09 З 2
{4}
н/о н/о +20.9 +18.5 86 +26 +26 душно 1015.3 906.4
19 19.09 З 3
{5}
н/о н/о +22.8 +19.3 81 +29 +29 очень
душно
1014.1 906.0
21 19.09 З 2
{4}
н/о н/о +20.2 +18.4 89 +24 +24 комфорт 1016.1 906.9 0.2
22 19.09 З 2
{4}
н/о н/о +20.3 +18.1 87 +24 +24 комфорт 1016.1 906.9
23 19.09 З 2
{4}
н/о н/о +20.1 +18.2 89 +24 +24 комфорт 1016.6 907.3
00 20.09 СЗ 2
{4}
н/о н/о +19.6 +18.4 93 +23 +23 комфорт 1017.6 908.0
02 20.09 СЗ 2
{4}
н/о н/о +19.2 +18.1 93 +22 +22 комфорт 1017.5 907.8
01 20.09 СЗ 3
{4}
н/о н/о +19.6 +18.2 92 +23 +23 комфорт 1017.4 907.8
03 20.09 СЗ 2
{4}
н/о н/о +19.4 +18.0 92 +22 +22 комфорт 1017.2 907.6
04 20.09 СЗ 2
{4}
н/о н/о +19.6 +18.0 90 +23 +23 комфорт 1016.8 907.3
05 20.09 З 2
{3}
н/о н/о +19.6 +18.1 91 +23 +23 комфорт 1016.0 906.6
06 20.09 С 1
{2}
н/о н/о +19.5 +17.6 89 +23 +23 комфорт 1016.1 906.6
08 20.09 С 2
{3}
н/о н/о +18.3 +17.4 94 +20 +20 1017.2 907.2
07 20.09 С 2
{3}
н/о н/о +18.9 +17.1 89 +21 +21 комфорт 1016.6 906.9
09 20.09 СВ 1
{3}
н/о н/о +18.0 +17.4 96 +19 +19 1018.0 907.8
10 20.09 С 2
{4}
н/о н/о +17.7 +17.2 97 +18 +18 1019.1 908.7
11 20.09 С 2
{4}
н/о н/о +18.3 +16.9 92 +19 +19 1019.6 909.3
12 20.09 СЗ 2
{4}
н/о н/о +19.4 +17.0 86 +22 +22 комфорт 1019.7 909.8
14 20.09 С 1
{3}
н/о н/о +21.8 +18.0 79 +26 +26 душно 1017.6 908.8
13 20.09 С 2
{4}
н/о н/о +21.4 +17.8 80 +26 +26 душно 1018.2 909.2
15 20.09 С 1
{4}
н/о н/о +21.7 +18.2 80 +26 +26 душно 1016.5 907.8
16 20.09 С 1
{4}
н/о н/о +23.3 +17.9 72 +29 +29 душно 1014.9 906.9
17 20.09 С 1
{3}
н/о н/о +23.3 +17.3 69 +29 +29 душно 1014.1 906.2
18 20.09 СЗ 1
{3}
н/о н/о +23.1 +18.2 74 +29 +29 очень
душно
1014.2 906.2
20 20.09 штиль 0
{2}
н/о н/о +20.7 +18.3 86 +24 +24 комфорт 1016.0 907.0
19 20.09 штиль 0
{2}
н/о н/о +22.1 +17.7 76 +27 +27 душно 1015.1 906.7
21 20.09 штиль 0
{1}
н/о н/о +19.3 +18.3 94 +21 +21 комфорт 1016.9 907.3

 

Местоположение метеостанции Santa Tereza (Бразилия): широта -19.98 долгота -40.58 высота над уровнем моря 990 м.

В архиве по умолчанию представлена погода в Santa Tereza за последнюю неделю. Архивные данные за месяц целиком и за предыдущие месяцы, начиная с января 2011 года, Вы можете получить, выбрав интересующий диапазон дат из раскрывающегося списка и нажав кнопку "Ввод!".


*Определитесь, кто Вы:
робот инопланетянин человек

Внимание! Время в таблицах - всемирное. Для получения местного времени необходимо прибавить поправку, которая в Santa Tereza равна -3 ч.

Смотрите также архив погоды в соседних городах и на ближайших метеорологических станциях:

Погода в Vitoria (Бразилия) (44 км)
Погода в Vitoria (Бразилия) (47 км)
Погода в Alfredo Chaves (Бразилия) (74 км)
Погода в Aimores (Бразилия) (74 км)
Погода в Aimores (Бразилия) (75 км)
Погода в Linhares (Бразилия) (88 км)
Погода в Alegre (Бразилия) (127 км)
Погода в Presidente Kennedy (Бразилия) (133 км)
Погода в Mantena (Бразилия) (140 км)
Погода в Nova Venecia (Бразилия) (144 км)

Пояснения к столбцам:

Ветер - указаны скорость ветра в м/с - средняя за 10 мин, порывы в срок и между сроками (в фигурных скобках) и направление, откуда дует ветер: С - северный, СВ - северо-восточный, В - восточный, ЮВ - юго-восточный, Ю - южный, ЮЗ - юго-западный, З - западный, СЗ - северо-западный.
Видимость - горизонтальная дальность видимости в метрах или километрах. При видимости от 1 до 10 км при отсутствии осадков обычно наблюдается дымка, при ухудшении видимости до 1 км и менее - туман. В сухую погоду видимость может ухудшаться дымом, пылью или мглою.
Явления - указаны атмосферные явления, наблюдавшиеся в срок или в последний час перед сроком; фигурными скобками обозначены явления, наблюдавшиеся между сроками (за 1-3 часа до срока); квадратными скобками обозначены град или гололедные отложения с указанием их диаметра в мм.
Облачность - указаны через наклонную черту общая и нижняя облачность в баллах и высота нижней границы облаков в метрах; квадратными скобками обозначены формы облаков: Ci - перистые, Cs - перисто-слоистые, Cc - перисто-кучевые, Ac - высококучевые, As - высокослоистые, Sc - слоисто-кучевые, Ns - слоисто-дождевые, Cu - кучевые, Cb - кучево-дождевые. Подробнее классификацию облаков см. в Атласе облаков (PDF).
T - Температура воздуха - температура, измеренная на высоте 2 м над землей.
Td - Температура точки росы - температура, при понижении до которой содержащийся в воздухе водяной пар достигнет насыщения.
f - Относительная влажность воздуха - влажноcть воздуха, измеренная на высоте 2 м над землей.
Te - Эффективная температура - температура, которую ощущает одетый по сезону человек в тени. Характеристика душности погоды. При расчете учитывается влияние влажности воздуха и скорости ветра на теплоощущения человека.
Tes - Эффективная температура на солнце - температура, которую ощущает человек, с поправкой на солнечный нагрев. Характеристика знойности погоды. Зависит от высоты солнца над горизонтом, облачности и скорости ветра. Ночью, в пасмурную погоду, а также при ветре 12 м/с и более поправка равна нулю.
P - Атмосферное давление - приведенное к уровню моря атмосферное давление.
Po - Атмосферное давление - измеренное на уровне метеостанции атмосферное давление.
Tmin - Минимальная температура - минимум температуры воздуха на высоте 2 м над землей.
Tmax - Максимальная температура - максимум температуры воздуха на высоте 2 м над землей.
R - Количество осадков - Количество выпавших осадков за период времени, мм. При наведении курсора мыши на число - период времени, за который выпало указанное количество осадков.
R24 - Количество осадков - Количество выпавших осадков за 24 часа, мм.
S - Снежный покров - Высота снежного покрова, см. При наведении курсора мыши на число - состояние снежного покрова и степень покрытия местности в баллах.